TimeCST,TemperatureF,Dew PointF,Humidity,Sea Level PressureIn,VisibilityMPH,Wind Direction,Wind SpeedMPH,Gust SpeedMPH,PrecipitationIn,Events,Conditions,WindDirDegrees,DateUTC
12:46 AM,60.8,53.6,77,30.22,10.0,ENE,11.5,-,N/A,,Overcast,70,2013-01-09 06:46:00
12:55 AM,59.9,54.7,83,30.23,10.0,ENE,11.5,-,N/A,,Overcast,70,2013-01-09 06:55:00
1:32 AM,59.0,55.4,88,30.23,10.0,ENE,9.2,-,N/A,,Overcast,70,2013-01-09 07:32:00
1:44 AM,59.0,55.4,88,30.22,10.0,ENE,8.1,-,N/A,,Overcast,70,2013-01-09 07:44:00
1:54 AM,59.0,55.4,88,30.23,10.0,ENE,10.4,-,N/A,,Overcast,70,2013-01-09 07:54:00
1:55 AM,59.9,55.0,84,30.23,10.0,East,10.4,-,N/A,,Overcast,80,2013-01-09 07:55:00
2:55 AM,59.9,55.2,84,30.24,10.0,ENE,5.8,-,N/A,,Overcast,70,2013-01-09 08:55:00
3:55 AM,59.9,55.8,86,30.25,10.0,ENE,6.9,-,N/A,,Overcast,60,2013-01-09 09:55:00
4:55 AM,59.4,55.2,86,30.25,10.0,ENE,9.2,-,N/A,,Overcast,60,2013-01-09 10:55:00
5:36 AM,59.0,55.4,88,30.26,10.0,ENE,11.5,-,N/A,,Overcast,70,2013-01-09 11:36:00
5:55 AM,58.5,54.5,87,30.26,10.0,ENE,10.4,-,N/A,,Overcast,60,2013-01-09 11:55:00
6:55 AM,58.3,54.7,88,30.30,10.0,ENE,6.9,-,N/A,,Overcast,60,2013-01-09 12:55:00
7:55 AM,58.8,55.6,89,30.31,10.0,ENE,11.5,-,N/A,,Overcast,60,2013-01-09 13:55:00
8:55 AM,59.4,56.1,89,30.32,10.0,ENE,8.1,-,N/A,,Overcast,70,2013-01-09 14:55:00
9:28 AM,60.8,55.4,82,30.33,10.0,ENE,9.2,-,N/A,,Overcast,60,2013-01-09 15:28:00
9:55 AM,60.3,56.1,86,30.32,10.0,ENE,8.1,-,N/A,,Overcast,70,2013-01-09 15:55:00
10:55 AM,63.0,57.6,82,30.30,10.0,ENE,8.1,-,N/A,,Overcast,70,2013-01-09 16:55:00
11:01 AM,62.6,57.2,82,30.30,10.0,ENE,9.2,-,N/A,,Overcast,70,2013-01-09 17:01:00
11:55 AM,64.0,58.1,81,30.28,10.0,East,11.5,-,N/A,,Overcast,90,2013-01-09 17:55:00
12:55 PM,65.5,59.0,80,30.26,10.0,East,8.1,-,N/A,,Overcast,80,2013-01-09 18:55:00
1:55 PM,65.5,60.1,83,30.26,10.0,ENE,6.9,-,N/A,,Overcast,70,2013-01-09 19:55:00
2:53 PM,66.2,60.8,83,30.26,10.0,ENE,9.2,-,N/A,,Overcast,70,2013-01-09 20:53:00
2:55 PM,65.3,60.8,85,30.26,10.0,ENE,8.1,-,N/A,,Overcast,60,2013-01-09 20:55:00
3:48 PM,64.4,60.8,88,30.26,10.0,ENE,6.9,-,N/A,,Overcast,70,2013-01-09 21:48:00
3:55 PM,65.1,60.8,86,30.26,10.0,ENE,8.1,-,N/A,,Overcast,70,2013-01-09 21:55:00
4:30 PM,64.4,60.8,88,30.25,10.0,ENE,8.1,-,N/A,,Overcast,70,2013-01-09 22:30:00
4:55 PM,64.8,60.8,87,30.26,10.0,ENE,8.1,-,N/A,,Overcast,60,2013-01-09 22:55:00
4:58 PM,64.4,60.8,88,30.27,10.0,ENE,6.9,-,N/A,,Overcast,60,2013-01-09 22:58:00
5:55 PM,64.4,60.6,88,30.28,10.0,NE,8.1,-,N/A,,Overcast,40,2013-01-09 23:55:00
6:55 PM,64.0,60.4,88,30.30,10.0,NE,6.9,-,N/A,,Overcast,40,2013-01-10 00:55:00
6:57 PM,64.4,60.8,88,30.30,10.0,NE,8.1,-,N/A,,Overcast,50,2013-01-10 00:57:00
7:55 PM,64.2,60.6,88,30.31,10.0,NE,9.2,-,N/A,,Overcast,50,2013-01-10 01:55:00
8:19 PM,62.6,60.8,94,30.31,10.0,ENE,8.1,-,N/A,,Mostly Cloudy,60,2013-01-10 02:19:00
8:55 PM,63.1,60.3,90,30.30,10.0,ENE,9.2,-,N/A,,Mostly Cloudy,70,2013-01-10 02:55:00
9:41 PM,62.6,60.8,94,30.31,10.0,ENE,8.1,-,N/A,,Mostly Cloudy,60,2013-01-10 03:41:00
9:55 PM,63.0,60.6,92,30.31,10.0,ENE,9.2,-,N/A,,Mostly Cloudy,60,2013-01-10 03:55:00
10:20 PM,62.6,60.8,94,30.31,10.0,ENE,8.1,-,N/A,,Mostly Cloudy,70,2013-01-10 04:20:00
10:32 PM,62.6,60.8,94,30.31,10.0,ENE,5.8,-,N/A,,Mostly Cloudy,70,2013-01-10 04:32:00
10:55 PM,63.7,61.7,93,30.32,10.0,ENE,5.8,-,N/A,,Overcast,70,2013-01-10 04:55:00
11:02 PM,64.4,62.6,94,30.32,10.0,ENE,6.9,-,N/A,,Overcast,60,2013-01-10 05:02:00
11:45 PM,64.4,62.6,94,30.32,10.0,ENE,6.9,-,N/A,,Overcast,70,2013-01-10 05:45:00
11:55 PM,63.9,61.9,93,30.31,10.0,East,6.9,-,N/A,,Overcast,80,2013-01-10 05:55:00